Simultaneous Nadir Overpasses (SNOs) Predictions

Prediction of SNOs between METOP-A and NOAA-19 Satellite Orbit:

Table of predicted SNOs for the next 14.0 days since TLE Epoch: 2/3/2012
Index Date (METOP-A) Time (METOP-A) METOP-A Lat,Lon Date (NOAA-19) Time (NOAA-19) NOAA-19 Lat,Lon Distance(km) Time Diff (sec)
1 02/08/2012 07:34:48 -73.62,-119.98 02/08/2012 07:33:39 -73.63,-122.28 72.12 69
2 02/08/2012 08:25:38 73.09, 46.16 02/08/2012 08:24:28 73.11, 46.18 2.38 70
3 02/08/2012 09:16:21 -73.05,-146.59 02/08/2012 09:15:33 -73.07,-146.51 3.23 48
4 02/08/2012 10:07:00 73.07, 20.78 02/08/2012 10:06:33 73.08, 20.71 2.92 27
5 02/08/2012 10:57:43 -73.03,-171.97 02/08/2012 10:57:38 -73.04,-171.98 1.01 5
6 02/08/2012 11:48:23 73.00, -4.70 02/08/2012 11:48:37 73.01, -4.65 1.97 14
7 02/08/2012 12:39:05 -73.02, 162.65 02/08/2012 12:39:43 -73.02, 162.55 3.22 38
8 02/08/2012 13:29:45 72.98, -30.08 02/08/2012 13:30:42 72.99, -30.12 1.37 57
9 02/08/2012 14:20:31 -72.80, 136.85 02/08/2012 14:21:44 -72.79, 137.51 21.87 73




NCC Satellite Simultaneous Nadir Overpasses (SNOs) Prediction Service
